Location: Byszew
(52.1813°N, 19.2693°E)
Time: 04:45:55
(UTC+00:00)

Envisat - Pass Details

Date: 05 February 2022
Orbit: 764 x 765 km, 98.2° (Epoch: 25 May)

Event Time Altitude Azimuth Distance (km) Brightness Sun altitude
Rises 04:42:18 0° 9° (N) 3,246 6.3 -14.7°
Reaches altitude 10° 04:44:45 10° 2° (N) 2,315 5.4 -14.4°
Maximum altitude 04:49:25 38° 296° (WNW) 1,168 3.5 -13.7°
Drops below altitude 10° 04:54:03 10° 230° (SW) 2,302 5.1 -13.0°
Sets 04:56:29 0° 222° (SW) 3,224 5.9 -12.6°
